{"data":{"norad_id":59711,"epoch":"2026-09-21T21:08:02.642496Z","epoch_age_seconds":52082,"freshness":"FRESH","line1":"1 59711U 24088D   26264.88058614  .00003584  00000+0  34436-4 0  9998","line2":"2 59711  53.1591  79.3154 0000942  80.2887 279.8237 15.69705043137083","mean_motion":15.69705043,"eccentricity":9.42e-5,"inclination_deg":53.1591,"raan_deg":79.3154,"arg_perigee_deg":80.2887,"mean_anomaly_deg":279.8237,"bstar":3.4436e-5,"rev_number":13708,"period_min":91.736979913621,"perigee_km":359.10622739215,"apogee_km":360.37564359519,"semimajor_km":6737.8779354937,"source":"CELESTRAK","updated_at":"2026-09-22T09:00:49.057808Z"}}